Weather History for Alexandria Esle, LA

Change the Weather History Date:

Tuesday, July 30, 2013

  Actual Average Record
Temperature  
Mean Temperature 84 °F -  
Max Temperature 96 °F 92 °F 102 °F (1998)
Min Temperature 71 °F 71 °F 64 °F (2014)
Cooling Degree Days 18    
Growing Degree Days 34 (Base 50)    
Moisture  
Dew Point 71 °F    
Average Humidity 79    
Maximum Humidity 94    
Minimum Humidity 36    
Precipitation  
Precipitation 0.00 in - - ()
Sea Level Pressure  
Sea Level Pressure 30.09 in    
Wind  
Wind Speed 1 mph (SSW)    
Max Wind Speed 8 mph    
Max Gust Speed -    
Visibility 6 miles    
Events Fog    
Averages and records for this station are not official NWS values.
T = Trace of Precipitation, MM = Missing Value Source: NWS Daily Summary

Daily Weather History Graph

Daily Weather History Graph

Search for Another Location

Airport:

Trip Planner

Search our weather history database for the weather conditions in past years. The results will help you decide how hot, cold, wet, or windy it might be!

Date:

Astronomy

Jul. 30, 2013 Rise Set
Actual Time 6:24 AM CDT 8:06 PM CDT
Civil Twilight 5:58 AM CDT 8:32 PM CDT
Nautical Twilight 5:26 AM CDT 9:04 PM CDT
Astronomical Twilight 4:52 AM CDT 9:38 PM CDT
Moon 12:39 AM CDT 2:28 PM CDT
Length of Visible Light 14h 34m
Length of Day
13h 41m
Last Quarter, 41% of the Moon is Illuminated
Jul 30
Last Quarter
Aug 6
New
Aug 14
First Quarter
Aug 20
Full
Aug 28
Last Quarter

Hourly Weather History & Observations

Time (CDT) Temp. Heat Index Dew Point Humidity Pressure Visibility Wind Dir Wind Speed Gust Speed Precip Events Conditions
12:53 AM 77.0 °F - 72.0 °F 84% 30.09 in 10.0 mi Calm Calm - N/A   Clear
1:53 AM 75.0 °F - 72.0 °F 90% 30.09 in 8.0 mi Calm Calm - N/A   Clear
2:20 AM 73.4 °F - 71.6 °F 94% 30.09 in 1.8 mi Calm Calm - N/A   Clear
2:33 AM 73.4 °F - 71.6 °F 94% 30.09 in 3.0 mi Calm Calm - N/A   Clear
2:53 AM 73.9 °F - 71.1 °F 91% 30.09 in 6.0 mi Calm Calm - N/A   Clear
3:53 AM 73.0 °F - 70.0 °F 90% 30.09 in 6.0 mi Calm Calm - N/A   Clear
4:06 AM 73.4 °F - 69.8 °F 88% 30.09 in 1.8 mi Calm Calm - N/A   Clear
4:14 AM 73.4 °F - 69.8 °F 88% 30.09 in 3.0 mi Calm Calm - N/A   Clear
4:51 AM 71.6 °F - 69.8 °F 94% 30.10 in 1.0 mi Calm Calm - N/A   Mist
4:53 AM 72.0 °F - 70.0 °F 93% 30.09 in 0.8 mi Calm Calm - N/A   Mist
5:14 AM 71.6 °F - 69.8 °F 94% 30.10 in 1.2 mi Calm Calm - N/A   Partly Cloudy
5:17 AM 71.6 °F - 69.8 °F 94% 30.10 in 3.0 mi Calm Calm - N/A   Partly Cloudy
5:45 AM 71.6 °F - 69.8 °F 94% 30.11 in 1.5 mi Calm Calm - N/A   Partly Cloudy
5:49 AM 71.6 °F - 69.8 °F 94% 30.11 in 0.8 mi Calm Calm - N/A   Mist
5:53 AM 71.1 °F - 69.1 °F 93% 30.11 in 0.5 mi Calm Calm - N/A Fog Fog
6:03 AM 71.6 °F - 69.8 °F 94% 30.11 in 1.2 mi Calm Calm - N/A   Scattered Clouds
6:17 AM 71.6 °F - 69.8 °F 94% 30.12 in 0.8 mi Calm Calm - N/A   Mist
6:27 AM 71.6 °F - 69.8 °F 94% 30.12 in 1.0 mi Calm Calm - N/A   Clear
6:35 AM 71.6 °F - 69.8 °F 94% 30.12 in 3.0 mi Calm Calm - N/A   Clear
6:53 AM 71.1 °F - 69.1 °F 93% 30.12 in 7.0 mi Calm Calm - N/A   Clear
7:53 AM 77.0 °F - 73.9 °F 90% 30.14 in 9.0 mi Calm Calm - N/A   Clear
8:53 AM 82.0 °F 88.6 °F 75.0 °F 79% 30.14 in 10.0 mi West 6.9 mph - N/A   Clear
9:53 AM 86.0 °F 93.0 °F 73.0 °F 65% 30.15 in 10.0 mi WSW 8.1 mph - N/A   Clear
10:53 AM 88.0 °F 94.7 °F 72.0 °F 59% 30.14 in 10.0 mi Calm Calm - N/A   Clear
11:53 AM 89.1 °F 96.0 °F 72.0 °F 57% 30.13 in 10.0 mi West 3.5 mph - N/A   Clear
12:53 PM 91.9 °F 98.4 °F 71.1 °F 50% 30.11 in 10.0 mi SSW 4.6 mph - N/A   Clear
1:53 PM 93.9 °F 98.6 °F 68.0 °F 43% 30.09 in 10.0 mi SW 4.6 mph - N/A   Clear
2:53 PM 93.9 °F 97.5 °F 66.9 °F 41% 30.08 in 10.0 mi SSW 6.9 mph - N/A   Clear
3:53 PM 95.0 °F 99.5 °F 68.0 °F 41% 30.07 in 10.0 mi SSE 4.6 mph - N/A   Clear
4:53 PM 96.1 °F 98.8 °F 64.9 °F 36% 30.06 in 10.0 mi WSW 6.9 mph - N/A   Clear
5:53 PM 93.9 °F 100.3 °F 70.0 °F 46% 30.04 in 10.0 mi SSE 4.6 mph - N/A   Clear
6:53 PM 91.0 °F 99.3 °F 73.0 °F 55% 30.04 in 10.0 mi Calm Calm - N/A   Clear
7:53 PM 86.0 °F 96.0 °F 75.9 °F 72% 30.03 in 10.0 mi SSE 3.5 mph - N/A   Clear
8:53 PM 81.0 °F 87.3 °F 75.9 °F 85% 30.04 in 10.0 mi Calm Calm - N/A   Clear
9:53 PM 79.0 °F - 75.0 °F 88% 30.05 in 10.0 mi Calm Calm - N/A   Clear
10:53 PM 78.1 °F - 73.9 °F 87% 30.06 in 10.0 mi Calm Calm - N/A   Clear
11:53 PM 75.9 °F - 72.0 °F 87% 30.06 in 9.0 mi South 3.5 mph - N/A   Clear